Time,TemperatureF,DewpointF,PressureIn,WindDirection,WindDirectionDegrees,WindSpeedMPH,WindSpeedGustMPH,Humidity,HourlyPrecipIn,Conditions,Clouds,dailyrainin,SolarRadiationWatts/m^2,SoftwareType,DateUTC
2013-02-13 00:00:00,33.0,24.6,29.92,WNW,286,0.0,12.0,71,0.00,,---,0.00,0.00,VWS V14.01,2013-02-13 05:00:00,
2013-02-13 00:05:00,33.1,24.4,29.92,WSW,244,0.0,6.0,70,0.00,,---,0.00,0.00,VWS V14.01,2013-02-13 05:05:00,
2013-02-13 00:10:00,33.1,24.7,29.92,WNW,294,0.0,6.0,71,0.00,,---,0.00,0.00,VWS V14.01,2013-02-13 05:10:00,
2013-02-13 00:15:00,33.1,24.7,29.92,West,265,0.0,6.0,71,0.00,,---,0.00,0.00,VWS V14.01,2013-02-13 05:15:00,
2013-02-13 00:20:00,33.0,24.3,29.92,West,269,0.0,6.0,70,0.00,,---,0.00,0.00,VWS V14.01,2013-02-13 05:20:00,
2013-02-13 00:25:00,33.1,24.0,29.91,WSW,237,1.0,6.0,69,0.00,,---,0.00,0.00,VWS V14.01,2013-02-13 05:25:00,
2013-02-13 00:30:00,33.1,24.0,29.91,West,268,1.0,2.0,69,0.00,,---,0.00,0.00,VWS V14.01,2013-02-13 05:30:00,
2013-02-13 00:35:00,33.1,24.4,29.91,West,269,1.0,2.0,70,0.00,,---,0.00,0.00,VWS V14.01,2013-02-13 05:35:00,
2013-02-13 00:40:00,33.1,24.0,29.92,West,267,2.0,5.0,69,0.00,,---,0.00,0.00,VWS V14.01,2013-02-13 05:40:00,
2013-02-13 00:45:00,33.0,24.3,29.92,SW,221,4.0,7.0,70,0.00,,---,0.00,0.00,VWS V14.01,2013-02-13 05:45:00,
2013-02-13 00:50:00,33.0,24.3,29.92,WNW,299,0.0,7.0,70,0.00,,---,0.00,0.00,VWS V14.01,2013-02-13 05:50:00,
2013-02-13 00:55:00,32.9,24.5,29.92,SSW,202,1.0,7.0,71,0.00,,---,0.00,0.00,VWS V14.01,2013-02-13 05:55:00,
2013-02-13 01:00:00,32.9,24.5,29.92,East,83,0.0,0.0,71,0.00,,---,0.00,0.00,VWS V14.01,2013-02-13 06:00:00,
2013-02-13 01:05:00,32.9,24.5,29.92,WNW,298,2.0,3.0,71,0.00,,---,0.00,0.00,VWS V14.01,2013-02-13 06:05:00,
2013-02-13 01:10:00,32.9,24.5,29.92,WNW,290,3.0,6.0,71,0.00,,---,0.00,0.00,VWS V14.01,2013-02-13 06:10:00,
2013-02-13 01:15:00,32.9,24.5,29.92,WNW,290,0.0,6.0,71,0.00,,---,0.00,0.00,VWS V14.01,2013-02-13 06:15:00,
2013-02-13 01:20:00,32.8,24.5,29.92,West,277,0.0,6.0,71,0.00,,---,0.00,0.00,VWS V14.01,2013-02-13 06:20:00,
2013-02-13 01:25:00,32.8,24.5,29.92,West,272,3.0,8.0,71,0.00,,---,0.00,0.00,VWS V14.01,2013-02-13 06:25:00,
2013-02-13 01:30:00,32.9,24.2,29.92,West,259,3.0,3.0,70,0.00,,---,0.00,0.00,VWS V14.01,2013-02-13 06:30:00,
2013-02-13 01:35:00,32.9,24.5,29.92,ENE,67,0.0,7.0,71,0.00,,---,0.00,0.00,VWS V14.01,2013-02-13 06:35:00,
2013-02-13 01:40:00,32.8,24.5,29.92,NNE,22,0.0,7.0,71,0.00,,---,0.00,0.00,VWS V14.01,2013-02-13 06:40:00,
2013-02-13 01:45:00,32.8,24.5,29.92,SW,228,2.0,7.0,71,0.00,,---,0.00,0.00,VWS V14.01,2013-02-13 06:45:00,
2013-02-13 01:50:00,32.7,24.7,29.92,NW,325,2.0,7.0,72,0.00,,---,0.00,0.00,VWS V14.01,2013-02-13 06:50:00,
2013-02-13 01:55:00,32.7,24.7,29.92,WSW,241,1.0,7.0,72,0.00,,---,0.00,0.00,VWS V14.01,2013-02-13 06:55:00,
2013-02-13 02:00:00,32.7,24.7,29.92,East,92,0.0,7.0,72,0.00,,---,0.00,0.00,VWS V14.01,2013-02-13 07:00:00,
2013-02-13 02:05:00,32.6,24.6,29.92,WNW,282,2.0,3.0,72,0.00,,---,0.00,0.00,VWS V14.01,2013-02-13 07:05:00,
2013-02-13 02:10:00,32.6,24.2,29.92,WNW,282,0.0,4.0,71,0.00,,---,0.00,0.00,VWS V14.01,2013-02-13 07:10:00,
2013-02-13 02:15:00,32.6,24.6,29.93,WNW,282,0.0,4.0,72,0.00,,---,0.00,0.00,VWS V14.01,2013-02-13 07:15:00,
2013-02-13 02:20:00,32.6,24.2,29.93,WNW,282,0.0,4.0,71,0.00,,---,0.00,0.00,VWS V14.01,2013-02-13 07:20:00,
2013-02-13 02:25:00,32.6,24.2,29.93,WNW,282,0.0,4.0,71,0.00,,---,0.00,0.00,VWS V14.01,2013-02-13 07:25:00,
2013-02-13 02:30:00,32.6,24.2,29.93,SW,222,0.0,0.0,71,0.00,,---,0.00,0.00,VWS V14.01,2013-02-13 07:30:00,
2013-02-13 02:35:00,32.6,24.6,29.93,WSW,252,0.0,3.0,72,0.00,,---,0.00,0.00,VWS V14.01,2013-02-13 07:35:00,
2013-02-13 02:40:00,32.6,24.6,29.93,NW,313,0.0,4.0,72,0.00,,---,0.00,0.00,VWS V14.01,2013-02-13 07:40:00,
2013-02-13 02:45:00,32.6,24.2,29.93,WSW,257,0.0,5.0,71,0.00,,---,0.00,0.00,VWS V14.01,2013-02-13 07:45:00,
2013-02-13 02:50:00,32.6,24.6,29.94,WSW,257,0.0,5.0,72,0.00,,---,0.00,0.00,VWS V14.01,2013-02-13 07:50:00,
2013-02-13 02:55:00,32.6,24.6,29.94,NW,305,2.0,5.0,72,0.00,,---,0.00,0.00,VWS V14.01,2013-02-13 07:55:00,
2013-02-13 03:00:00,32.6,24.6,29.94,WNW,297,0.0,0.0,72,0.00,,---,0.00,0.00,VWS V14.01,2013-02-13 08:00:00,
2013-02-13 03:05:00,32.5,24.5,29.93,WNW,282,0.0,4.0,72,0.00,,---,0.00,0.00,VWS V14.01,2013-02-13 08:05:00,
2013-02-13 03:10:00,32.5,24.5,29.93,WNW,282,0.0,4.0,72,0.00,,---,0.00,0.00,VWS V14.01,2013-02-13 08:10:00,
2013-02-13 03:15:00,32.5,24.5,29.93,WNW,282,0.0,4.0,72,0.00,,---,0.00,0.00,VWS V14.01,2013-02-13 08:15:00,
2013-02-13 03:20:00,32.4,24.4,29.93,WNW,282,0.0,4.0,72,0.00,,---,0.00,0.00,VWS V14.01,2013-02-13 08:20:00,
2013-02-13 03:25:00,32.4,24.7,29.93,NW,317,0.0,4.0,73,0.00,,---,0.00,0.00,VWS V14.01,2013-02-13 08:25:00,
2013-02-13 03:30:00,32.4,24.7,29.93,NW,317,0.0,0.0,73,0.00,,---,0.00,0.00,VWS V14.01,2013-02-13 08:30:00,
2013-02-13 03:35:00,32.4,24.4,29.93,West,279,1.0,5.0,72,0.00,,---,0.00,0.00,VWS V14.01,2013-02-13 08:35:00,
2013-02-13 03:40:00,32.4,24.7,29.93,NW,322,2.0,6.0,73,0.00,,---,0.00,0.00,VWS V14.01,2013-02-13 08:40:00,
2013-02-13 03:45:00,32.5,24.5,29.93,West,259,3.0,6.0,72,0.00,,---,0.00,0.00,VWS V14.01,2013-02-13 08:45:00,
2013-02-13 03:50:00,32.5,24.5,29.92,WSW,256,0.0,7.0,72,0.00,,---,0.00,0.00,VWS V14.01,2013-02-13 08:50:00,
2013-02-13 03:55:00,32.5,24.5,29.92,WSW,256,0.0,7.0,72,0.00,,---,0.00,0.00,VWS V14.01,2013-02-13 08:55:00,
2013-02-13 04:00:00,32.4,24.4,29.92,West,266,5.0,5.0,72,0.00,,---,0.00,0.00,VWS V14.01,2013-02-13 09:00:00,
2013-02-13 04:05:00,32.5,24.8,29.92,WNW,300,0.0,5.0,73,0.00,,---,0.00,0.00,VWS V14.01,2013-02-13 09:05:00,
2013-02-13 04:10:00,32.4,24.7,29.92,WSW,240,0.0,5.0,73,0.00,,---,0.00,0.00,VWS V14.01,2013-02-13 09:10:00,
2013-02-13 04:15:00,32.4,24.7,29.92,West,279,0.0,5.0,73,0.00,,---,0.00,0.00,VWS V14.01,2013-02-13 09:15:00,
2013-02-13 04:20:00,32.4,24.7,29.92,West,279,0.0,5.0,73,0.00,,---,0.00,0.00,VWS V14.01,2013-02-13 09:20:00,
2013-02-13 04:25:00,32.3,25.0,29.92,West,279,0.0,5.0,74,0.00,,---,0.00,0.00,VWS V14.01,2013-02-13 09:25:00,
2013-02-13 04:30:00,32.2,24.9,29.92,West,279,0.0,5.0,74,0.00,,---,0.00,0.00,VWS V14.01,2013-02-13 09:30:00,
2013-02-13 04:35:00,32.1,24.8,29.92,West,279,0.0,0.0,74,0.00,,---,0.00,0.00,VWS V14.01,2013-02-13 09:35:00,
2013-02-13 04:40:00,32.1,24.4,29.92,West,279,0.0,0.0,73,0.00,,---,0.00,0.00,VWS V14.01,2013-02-13 09:40:00,
2013-02-13 04:45:00,32.0,24.3,29.92,West,279,0.0,0.0,73,0.00,,---,0.00,0.00,VWS V14.01,2013-02-13 09:45:00,
2013-02-13 04:50:00,32.0,24.7,29.92,West,279,0.0,0.0,74,0.00,,---,0.00,0.00,VWS V14.01,2013-02-13 09:50:00,
2013-02-13 04:55:00,32.0,24.7,29.92,West,279,0.0,0.0,74,0.00,,---,0.00,0.00,VWS V14.01,2013-02-13 09:55:00,
2013-02-13 05:00:00,31.9,24.6,29.92,West,279,0.0,0.0,74,0.00,,---,0.00,0.00,VWS V14.01,2013-02-13 10:00:00,
2013-02-13 05:05:00,31.9,24.9,29.92,West,279,0.0,0.0,75,0.00,,---,0.00,0.00,VWS V14.01,2013-02-13 10:05:00,
2013-02-13 05:10:00,31.8,25.1,29.92,West,279,0.0,0.0,76,0.00,,---,0.00,0.00,VWS V14.01,2013-02-13 10:10:00,
2013-02-13 05:15:00,31.7,25.0,29.91,West,279,0.0,0.0,76,0.00,,---,0.00,0.00,VWS V14.01,2013-02-13 10:15:00,
2013-02-13 05:20:00,31.6,24.6,29.92,West,279,0.0,0.0,75,0.00,,---,0.00,0.00,VWS V14.01,2013-02-13 10:20:00,
2013-02-13 05:25:00,31.5,24.8,29.92,West,279,0.0,0.0,76,0.00,,---,0.00,0.00,VWS V14.01,2013-02-13 10:25:00,
2013-02-13 05:30:00,31.4,24.7,29.92,West,279,0.0,0.0,76,0.00,,---,0.00,0.00,VWS V14.01,2013-02-13 10:30:00,
2013-02-13 05:35:00,31.4,24.7,29.92,West,279,0.0,0.0,76,0.00,,---,0.00,0.00,VWS V14.01,2013-02-13 10:35:00,
2013-02-13 05:40:00,31.4,24.7,29.91,West,279,0.0,0.0,76,0.00,,---,0.00,0.00,VWS V14.01,2013-02-13 10:40:00,
2013-02-13 05:45:00,31.4,24.4,29.91,West,279,0.0,0.0,75,0.00,,---,0.00,0.00,VWS V14.01,2013-02-13 10:45:00,
2013-02-13 05:50:00,31.3,24.6,29.91,West,279,0.0,0.0,76,0.00,,---,0.00,0.00,VWS V14.01,2013-02-13 10:50:00,
2013-02-13 05:55:00,31.3,24.9,29.91,West,279,0.0,0.0,77,0.00,,---,0.00,0.00,VWS V14.01,2013-02-13 10:55:00,
2013-02-13 06:00:00,31.2,24.5,29.91,West,279,0.0,0.0,76,0.00,,---,0.00,0.00,VWS V14.01,2013-02-13 11:00:00,
2013-02-13 06:05:00,31.3,24.9,29.91,West,279,0.0,0.0,77,0.00,,---,0.00,0.00,VWS V14.01,2013-02-13 11:05:00,
2013-02-13 06:10:00,31.2,24.8,29.91,West,279,0.0,0.0,77,0.00,,---,0.00,0.00,VWS V14.01,2013-02-13 11:10:00,
2013-02-13 06:15:00,31.2,24.8,29.91,West,279,0.0,0.0,77,0.00,,---,0.00,0.00,VWS V14.01,2013-02-13 11:15:00,
2013-02-13 06:20:00,31.1,25.0,29.91,West,279,0.0,0.0,78,0.00,,---,0.00,0.00,VWS V14.01,2013-02-13 11:20:00,
2013-02-13 06:25:00,31.1,24.8,29.91,West,279,0.0,0.0,77,0.00,,---,0.00,0.00,VWS V14.01,2013-02-13 11:25:00,
2013-02-13 06:30:00,31.1,24.4,29.91,West,279,0.0,0.0,76,0.00,,---,0.00,0.00,VWS V14.01,2013-02-13 11:30:00,
2013-02-13 06:35:00,31.1,24.8,29.91,West,279,0.0,0.0,77,0.00,,---,0.00,0.00,VWS V14.01,2013-02-13 11:35:00,
2013-02-13 06:40:00,31.1,25.0,29.90,West,279,0.0,0.0,78,0.00,,---,0.00,0.00,VWS V14.01,2013-02-13 11:40:00,
2013-02-13 06:45:00,31.0,24.6,29.90,West,279,0.0,0.0,77,0.00,,---,0.00,0.00,VWS V14.01,2013-02-13 11:45:00,
2013-02-13 06:50:00,30.9,26.4,29.91,West,279,0.0,0.0,83,0.00,,---,0.00,0.00,VWS V14.01,2013-02-13 11:50:00,
2013-02-13 06:55:00,30.8,24.5,29.91,West,279,0.0,0.0,77,0.00,,---,0.00,0.00,VWS V14.01,2013-02-13 11:55:00,
2013-02-13 07:00:00,31.5,24.8,29.90,West,279,0.0,0.0,76,0.00,,---,0.00,162.00,VWS V14.01,2013-02-13 12:00:00,
2013-02-13 07:03:00,30.7,24.7,29.90,West,279,0.0,0.0,78,0.00,,---,0.00,7.00,VWS V14.01,2013-02-13 12:03:00,
2013-02-13 07:08:00,30.7,24.7,29.90,West,279,0.0,0.0,78,0.00,,---,0.00,12.00,VWS V14.01,2013-02-13 12:08:00,
2013-02-13 07:13:00,30.7,24.7,29.90,West,279,0.0,0.0,78,0.00,,---,0.00,21.00,VWS V14.01,2013-02-13 12:13:00,
2013-02-13 07:18:00,30.8,24.5,29.90,West,279,0.0,0.0,77,0.00,,---,0.00,25.00,VWS V14.01,2013-02-13 12:18:00,
2013-02-13 07:23:00,30.8,24.1,29.90,West,279,0.0,0.0,76,0.00,,---,0.00,32.00,VWS V14.01,2013-02-13 12:23:00,
2013-02-13 07:28:00,30.9,24.5,29.90,West,279,0.0,0.0,77,0.00,,---,0.00,35.00,VWS V14.01,2013-02-13 12:28:00,
2013-02-13 07:30:00,34.4,25.0,29.91,West,279,0.0,4.0,68,0.00,,---,0.00,144.00,VWS V14.01,2013-02-13 12:30:00,
2013-02-13 07:33:00,30.9,24.9,29.90,West,279,0.0,0.0,78,0.00,,---,0.00,33.00,VWS V14.01,2013-02-13 12:33:00,
2013-02-13 07:38:00,30.9,24.9,29.90,West,279,0.0,0.0,78,0.00,,---,0.00,42.00,VWS V14.01,2013-02-13 12:38:00,
2013-02-13 07:43:00,31.0,25.0,29.90,West,279,0.0,0.0,78,0.00,,---,0.00,47.00,VWS V14.01,2013-02-13 12:43:00,
2013-02-13 07:48:00,31.0,25.0,29.90,West,279,0.0,0.0,78,0.00,,---,0.00,56.00,VWS V14.01,2013-02-13 12:48:00,
2013-02-13 07:53:00,31.1,24.8,29.90,West,279,0.0,0.0,77,0.00,,---,0.00,90.00,VWS V14.01,2013-02-13 12:53:00,
2013-02-13 07:58:00,31.3,24.9,29.90,West,279,0.0,0.0,77,0.00,,---,0.00,153.00,VWS V14.01,2013-02-13 12:58:00,
2013-02-13 08:00:00,34.2,24.4,29.90,West,279,0.0,3.0,67,0.00,,---,0.00,188.00,VWS V14.01,2013-02-13 13:00:00,
2013-02-13 08:03:00,31.9,24.9,29.90,West,279,0.0,0.0,75,0.00,,---,0.00,188.00,VWS V14.01,2013-02-13 13:03:00,
2013-02-13 08:08:00,32.5,24.8,29.90,West,279,0.0,0.0,73,0.00,,---,0.00,213.00,VWS V14.01,2013-02-13 13:08:00,
2013-02-13 08:13:00,33.1,25.1,29.91,West,279,0.0,2.0,72,0.00,,---,0.00,232.00,VWS V14.01,2013-02-13 13:13:00,
2013-02-13 08:18:00,33.6,24.9,29.91,West,279,0.0,4.0,70,0.00,,---,0.00,248.00,VWS V14.01,2013-02-13 13:18:00,
2013-02-13 08:23:00,34.0,24.9,29.90,West,279,3.0,4.0,69,0.00,,---,0.00,274.00,VWS V14.01,2013-02-13 13:23:00,
2013-02-13 08:28:00,34.3,24.9,29.90,West,279,0.0,4.0,68,0.00,,---,0.00,155.00,VWS V14.01,2013-02-13 13:28:00,
2013-02-13 08:30:00,35.0,24.4,29.90,SW,214,0.0,5.0,65,0.00,,---,0.00,197.00,VWS V14.01,2013-02-13 13:30:00,
2013-02-13 08:33:00,34.4,24.6,29.91,West,279,0.0,1.0,67,0.00,,---,0.00,146.00,VWS V14.01,2013-02-13 13:33:00,
2013-02-13 08:38:00,34.4,25.0,29.90,West,279,0.0,1.0,68,0.00,,---,0.00,142.00,VWS V14.01,2013-02-13 13:38:00,
2013-02-13 08:43:00,34.5,24.7,29.90,West,279,0.0,1.0,67,0.00,,---,0.00,149.00,VWS V14.01,2013-02-13 13:43:00,
2013-02-13 08:48:00,34.4,24.2,29.90,West,279,1.0,3.0,66,0.00,,---,0.00,142.00,VWS V14.01,2013-02-13 13:48:00,
2013-02-13 08:53:00,34.3,24.1,29.90,West,279,1.0,3.0,66,0.00,,---,0.00,139.00,VWS V14.01,2013-02-13 13:53:00,
2013-02-13 08:58:00,34.2,24.0,29.90,West,279,0.0,3.0,66,0.00,,---,0.00,195.00,VWS V14.01,2013-02-13 13:58:00,
2013-02-13 09:00:00,34.8,24.2,29.89,West,265,0.0,6.0,65,0.00,,---,0.00,190.00,VWS V14.01,2013-02-13 14:00:00,
2013-02-13 09:03:00,34.3,24.1,29.90,West,279,0.0,4.0,66,0.00,,---,0.00,214.00,VWS V14.01,2013-02-13 14:03:00,
2013-02-13 09:08:00,34.7,24.5,29.90,West,279,0.0,4.0,66,0.00,,---,0.00,292.00,VWS V14.01,2013-02-13 14:08:00,
2013-02-13 09:13:00,35.0,24.4,29.89,West,273,0.0,4.0,65,0.00,,---,0.00,315.00,VWS V14.01,2013-02-13 14:13:00,
2013-02-13 09:18:00,35.2,24.6,29.89,ENE,78,3.0,4.0,65,0.00,,---,0.00,243.00,VWS V14.01,2013-02-13 14:18:00,
2013-02-13 09:23:00,35.3,25.1,29.90,WNW,288,1.0,4.0,66,0.00,,---,0.00,211.00,VWS V14.01,2013-02-13 14:23:00,
2013-02-13 09:28:00,35.0,24.4,29.89,ENE,57,0.0,5.0,65,0.00,,---,0.00,206.00,VWS V14.01,2013-02-13 14:28:00,
2013-02-13 09:30:00,36.9,25.5,29.88,WSW,258,0.0,7.0,63,0.00,,---,0.00,309.00,VWS V14.01,2013-02-13 14:30:00,
2013-02-13 09:33:00,35.0,24.1,29.90,WNW,298,2.0,3.0,64,0.00,,---,0.00,176.00,VWS V14.01,2013-02-13 14:33:00,
2013-02-13 09:38:00,35.1,24.5,29.89,WSW,257,0.0,3.0,65,0.00,,---,0.00,232.00,VWS V14.01,2013-02-13 14:38:00,
2013-02-13 09:43:00,35.1,24.2,29.89,WNW,298,0.0,5.0,64,0.00,,---,0.00,257.00,VWS V14.01,2013-02-13 14:43:00,
2013-02-13 09:48:00,35.3,25.5,29.89,WSW,240,0.0,5.0,67,0.00,,---,0.00,221.00,VWS V14.01,2013-02-13 14:48:00,
2013-02-13 09:53:00,35.0,24.4,29.89,NE,34,0.0,5.0,65,0.00,,---,0.00,179.00,VWS V14.01,2013-02-13 14:53:00,
2013-02-13 09:58:00,34.8,23.9,29.89,West,265,0.0,6.0,64,0.00,,---,0.00,178.00,VWS V14.01,2013-02-13 14:58:00,
2013-02-13 10:00:00,37.0,24.8,29.88,SW,215,0.0,6.0,61,0.00,,---,0.00,729.00,VWS V14.01,2013-02-13 15:00:00,
2013-02-13 10:03:00,34.8,23.9,29.89,WSW,255,5.0,5.0,64,0.00,,---,0.00,276.00,VWS V14.01,2013-02-13 15:03:00,
2013-02-13 10:08:00,34.8,23.5,29.89,West,267,4.0,7.0,63,0.00,,---,0.00,304.00,VWS V14.01,2013-02-13 15:08:00,
2013-02-13 10:13:00,35.3,24.0,29.89,WNW,287,0.0,7.0,63,0.00,,---,0.00,686.00,VWS V14.01,2013-02-13 15:13:00,
2013-02-13 10:18:00,36.2,24.5,29.89,NW,304,3.0,7.0,62,0.00,,---,0.00,345.00,VWS V14.01,2013-02-13 15:18:00,
2013-02-13 10:23:00,36.9,24.3,29.89,NW,304,0.0,7.0,60,0.00,,---,0.00,360.00,VWS V14.01,2013-02-13 15:23:00,
2013-02-13 10:28:00,37.1,24.9,29.89,ENE,57,3.0,7.0,61,0.00,,---,0.00,348.00,VWS V14.01,2013-02-13 15:28:00,
2013-02-13 10:30:00,37.9,25.3,29.87,WNW,282,3.0,6.0,60,0.00,,---,0.00,657.00,VWS V14.01,2013-02-13 15:30:00,
2013-02-13 10:33:00,36.2,24.8,29.89,NW,319,1.0,1.0,63,0.00,,---,0.00,265.00,VWS V14.01,2013-02-13 15:33:00,
2013-02-13 10:38:00,35.9,25.7,29.89,NNE,31,1.0,3.0,66,0.00,,---,0.00,243.00,VWS V14.01,2013-02-13 15:38:00,
2013-02-13 10:43:00,35.8,24.5,29.89,NNE,31,0.0,3.0,63,0.00,,---,0.00,265.00,VWS V14.01,2013-02-13 15:43:00,
2013-02-13 10:48:00,36.0,25.0,29.88,West,260,6.0,6.0,64,0.00,,---,0.00,380.00,VWS V14.01,2013-02-13 15:48:00,
2013-02-13 10:53:00,36.3,24.1,29.88,WSW,250,1.0,6.0,61,0.00,,---,0.00,673.00,VWS V14.01,2013-02-13 15:53:00,
2013-02-13 10:58:00,36.7,24.5,29.88,SW,236,0.0,6.0,61,0.00,,---,0.00,707.00,VWS V14.01,2013-02-13 15:58:00,
2013-02-13 11:00:00,37.2,24.6,29.86,NE,53,0.0,5.0,60,0.00,,---,0.00,120.00,VWS V14.01,2013-02-13 16:00:00,
2013-02-13 11:03:00,37.5,24.9,29.88,WNW,300,2.0,5.0,60,0.00,,---,0.00,765.00,VWS V14.01,2013-02-13 16:03:00,
2013-02-13 11:08:00,38.2,25.1,29.88,ENE,58,2.0,5.0,59,0.00,,---,0.00,798.00,VWS V14.01,2013-02-13 16:08:00,
2013-02-13 11:13:00,38.7,26.0,29.88,ENE,58,0.0,5.0,60,0.00,,---,0.00,744.00,VWS V14.01,2013-02-13 16:13:00,
2013-02-13 11:18:00,38.1,25.1,29.88,ENE,58,0.0,5.0,59,0.00,,---,0.00,195.00,VWS V14.01,2013-02-13 16:18:00,
2013-02-13 11:23:00,37.8,25.6,29.87,ENE,58,0.0,5.0,61,0.00,,---,0.00,656.00,VWS V14.01,2013-02-13 16:23:00,
2013-02-13 11:28:00,37.8,25.2,29.87,WSW,248,0.0,6.0,60,0.00,,---,0.00,649.00,VWS V14.01,2013-02-13 16:28:00,
2013-02-13 11:30:00,37.1,24.9,29.86,North,360,0.0,4.0,61,0.00,,---,0.00,195.00,VWS V14.01,2013-02-13 16:30:00,
2013-02-13 11:33:00,37.7,23.9,29.87,WNW,290,2.0,4.0,57,0.00,,---,0.00,671.00,VWS V14.01,2013-02-13 16:33:00,
2013-02-13 11:38:00,37.5,24.1,29.87,WSW,258,0.0,5.0,58,0.00,,---,0.00,726.00,VWS V14.01,2013-02-13 16:38:00,
2013-02-13 11:43:00,38.1,25.1,29.86,ENE,71,4.0,5.0,59,0.00,,---,0.00,733.00,VWS V14.01,2013-02-13 16:43:00,
2013-02-13 11:48:00,37.9,24.9,29.86,NE,53,0.0,5.0,59,0.00,,---,0.00,775.00,VWS V14.01,2013-02-13 16:48:00,
2013-02-13 11:53:00,37.9,24.9,29.86,NE,53,0.0,5.0,59,0.00,,---,0.00,146.00,VWS V14.01,2013-02-13 16:53:00,
2013-02-13 11:58:00,37.2,24.6,29.86,NE,53,0.0,5.0,60,0.00,,---,0.00,121.00,VWS V14.01,2013-02-13 16:58:00,
2013-02-13 12:00:00,38.6,24.3,29.85,East,94,0.0,4.0,56,0.00,,---,0.00,617.00,VWS V14.01,2013-02-13 17:00:00,
2013-02-13 12:03:00,37.3,24.3,29.86,ESE,113,3.0,3.0,59,0.00,,---,0.00,501.00,VWS V14.01,2013-02-13 17:03:00,
2013-02-13 12:08:00,37.3,25.1,29.86,ESE,113,0.0,4.0,61,0.00,,---,0.00,162.00,VWS V14.01,2013-02-13 17:08:00,
2013-02-13 12:13:00,37.2,24.6,29.86,ESE,113,0.0,4.0,60,0.00,,---,0.00,279.00,VWS V14.01,2013-02-13 17:13:00,
2013-02-13 12:18:00,37.4,24.0,29.86,ESE,113,0.0,4.0,58,0.00,,---,0.00,269.00,VWS V14.01,2013-02-13 17:18:00,
2013-02-13 12:23:00,37.3,23.5,29.87,ESE,113,0.0,4.0,57,0.00,,---,0.00,295.00,VWS V14.01,2013-02-13 17:23:00,
2013-02-13 12:28:00,37.3,24.7,29.86,North,360,0.0,4.0,60,0.00,,---,0.00,200.00,VWS V14.01,2013-02-13 17:28:00,
2013-02-13 12:30:00,40.1,24.8,29.83,ENE,74,3.0,5.0,54,0.00,,---,0.00,561.00,VWS V14.01,2013-02-13 17:30:00,
2013-02-13 12:33:00,36.9,23.5,29.86,NNE,28,0.0,4.0,58,0.00,,---,0.00,188.00,VWS V14.01,2013-02-13 17:33:00,
2013-02-13 12:38:00,36.9,23.9,29.86,NNE,28,0.0,4.0,59,0.00,,---,0.00,178.00,VWS V14.01,2013-02-13 17:38:00,
2013-02-13 12:43:00,37.0,24.0,29.85,NNE,28,0.0,4.0,59,0.00,,---,0.00,308.00,VWS V14.01,2013-02-13 17:43:00,
2013-02-13 12:48:00,37.5,24.1,29.85,NNE,28,0.0,4.0,58,0.00,,---,0.00,619.00,VWS V14.01,2013-02-13 17:48:00,
2013-02-13 12:53:00,38.0,24.5,29.85,East,94,0.0,4.0,58,0.00,,---,0.00,643.00,VWS V14.01,2013-02-13 17:53:00,
2013-02-13 12:58:00,38.4,24.1,29.85,East,94,0.0,4.0,56,0.00,,---,0.00,622.00,VWS V14.01,2013-02-13 17:58:00,
2013-02-13 13:00:00,40.3,24.1,29.81,South,171,0.0,6.0,52,0.00,,---,0.00,531.00,VWS V14.01,2013-02-13 18:00:00,
2013-02-13 13:03:00,38.9,24.6,29.85,East,95,0.0,3.0,56,0.00,,---,0.00,619.00,VWS V14.01,2013-02-13 18:03:00,
2013-02-13 13:08:00,39.3,24.1,29.84,ESE,106,0.0,4.0,54,0.00,,---,0.00,615.00,VWS V14.01,2013-02-13 18:08:00,
2013-02-13 13:13:00,39.8,25.0,29.84,ESE,106,0.0,4.0,55,0.00,,---,0.00,629.00,VWS V14.01,2013-02-13 18:13:00,
2013-02-13 13:18:00,40.0,24.7,29.83,East,94,2.0,5.0,54,0.00,,---,0.00,650.00,VWS V14.01,2013-02-13 18:18:00,
2013-02-13 13:23:00,40.0,25.1,29.83,NE,52,0.0,5.0,55,0.00,,---,0.00,612.00,VWS V14.01,2013-02-13 18:23:00,
2013-02-13 13:28:00,40.1,24.4,29.83,ENE,74,0.0,5.0,53,0.00,,---,0.00,626.00,VWS V14.01,2013-02-13 18:28:00,
2013-02-13 13:30:00,40.1,23.4,29.79,NNE,21,0.0,5.0,51,0.00,,---,0.00,462.00,VWS V14.01,2013-02-13 18:30:00,
2013-02-13 13:33:00,39.8,24.5,29.82,ENE,74,0.0,4.0,54,0.00,,---,0.00,599.00,VWS V14.01,2013-02-13 18:33:00,
2013-02-13 13:38:00,40.0,24.7,29.82,ESE,122,0.0,5.0,54,0.00,,---,0.00,578.00,VWS V14.01,2013-02-13 18:38:00,
2013-02-13 13:43:00,39.9,24.6,29.82,ESE,122,0.0,6.0,54,0.00,,---,0.00,383.00,VWS V14.01,2013-02-13 18:43:00,
2013-02-13 13:48:00,39.7,24.4,29.82,South,171,0.0,6.0,54,0.00,,---,0.00,519.00,VWS V14.01,2013-02-13 18:48:00,
2013-02-13 13:53:00,39.7,24.4,29.81,South,171,0.0,6.0,54,0.00,,---,0.00,575.00,VWS V14.01,2013-02-13 18:53:00,
2013-02-13 13:58:00,40.1,24.4,29.81,South,171,0.0,6.0,53,0.00,,---,0.00,540.00,VWS V14.01,2013-02-13 18:58:00,
2013-02-13 14:00:00,41.7,24.5,29.80,West,277,3.0,6.0,50,0.00,,---,0.00,388.00,VWS V14.01,2013-02-13 19:00:00,
2013-02-13 14:03:00,40.7,24.5,29.81,South,171,0.0,3.0,52,0.00,,---,0.00,527.00,VWS V14.01,2013-02-13 19:03:00,
2013-02-13 14:08:00,41.0,24.3,29.80,South,172,0.0,3.0,51,0.00,,---,0.00,515.00,VWS V14.01,2013-02-13 19:08:00,
2013-02-13 14:13:00,41.0,24.3,29.80,East,92,3.0,5.0,51,0.00,,---,0.00,503.00,VWS V14.01,2013-02-13 19:13:00,
2013-02-13 14:18:00,40.6,23.9,29.80,NNE,19,2.0,5.0,51,0.00,,---,0.00,494.00,VWS V14.01,2013-02-13 19:18:00,
2013-02-13 14:23:00,40.4,24.2,29.80,NNE,21,0.0,5.0,52,0.00,,---,0.00,482.00,VWS V14.01,2013-02-13 19:23:00,
2013-02-13 14:28:00,40.0,23.8,29.79,NNE,21,0.0,5.0,52,0.00,,---,0.00,468.00,VWS V14.01,2013-02-13 19:28:00,
2013-02-13 14:30:00,41.0,23.8,29.79,NW,317,1.0,4.0,50,0.00,,---,0.00,220.00,VWS V14.01,2013-02-13 19:30:00,
2013-02-13 14:33:00,40.5,24.3,29.79,WNW,288,2.0,6.0,52,0.00,,---,0.00,455.00,VWS V14.01,2013-02-13 19:33:00,
2013-02-13 14:38:00,40.6,24.8,29.79,West,279,2.0,6.0,53,0.00,,---,0.00,446.00,VWS V14.01,2013-02-13 19:38:00,
2013-02-13 14:43:00,40.9,25.1,29.79,WNW,292,0.0,6.0,53,0.00,,---,0.00,438.00,VWS V14.01,2013-02-13 19:43:00,
2013-02-13 14:48:00,41.3,24.5,29.79,NW,324,0.0,6.0,51,0.00,,---,0.00,424.00,VWS V14.01,2013-02-13 19:48:00,
2013-02-13 14:53:00,41.8,25.0,29.79,NW,313,0.0,6.0,51,0.00,,---,0.00,408.00,VWS V14.01,2013-02-13 19:53:00,
2013-02-13 14:58:00,42.0,24.7,29.80,WSW,253,4.0,6.0,50,0.00,,---,0.00,394.00,VWS V14.01,2013-02-13 19:58:00,
2013-02-13 15:00:00,40.2,23.5,29.78,NW,317,0.0,3.0,51,0.00,,---,0.00,62.00,VWS V14.01,2013-02-13 20:00:00,
2013-02-13 15:03:00,41.5,24.3,29.80,West,277,1.0,3.0,50,0.00,,---,0.00,385.00,VWS V14.01,2013-02-13 20:03:00,
2013-02-13 15:08:00,41.6,24.8,29.80,West,277,3.0,3.0,51,0.00,,---,0.00,373.00,VWS V14.01,2013-02-13 20:08:00,
2013-02-13 15:13:00,41.8,24.5,29.79,NW,317,2.0,4.0,50,0.00,,---,0.00,359.00,VWS V14.01,2013-02-13 20:13:00,
2013-02-13 15:18:00,41.4,23.7,29.79,NW,317,0.0,4.0,49,0.00,,---,0.00,308.00,VWS V14.01,2013-02-13 20:18:00,
2013-02-13 15:23:00,41.1,23.9,29.79,NW,317,0.0,4.0,50,0.00,,---,0.00,176.00,VWS V14.01,2013-02-13 20:23:00,
2013-02-13 15:28:00,41.0,23.8,29.79,NW,317,0.0,4.0,50,0.00,,---,0.00,162.00,VWS V14.01,2013-02-13 20:28:00,
2013-02-13 15:30:00,39.3,23.2,29.76,NW,317,0.0,0.0,52,0.00,,---,0.00,65.00,VWS V14.01,2013-02-13 20:30:00,
2013-02-13 15:33:00,41.0,23.3,29.78,NW,317,0.0,1.0,49,0.00,,---,0.00,243.00,VWS V14.01,2013-02-13 20:33:00,
2013-02-13 15:38:00,41.3,23.6,29.78,NW,317,1.0,1.0,49,0.00,,---,0.00,269.00,VWS V14.01,2013-02-13 20:38:00,
2013-02-13 15:43:00,41.3,23.6,29.78,NW,317,0.0,3.0,49,0.00,,---,0.00,265.00,VWS V14.01,2013-02-13 20:43:00,
2013-02-13 15:48:00,41.1,23.9,29.78,NW,317,0.0,3.0,50,0.00,,---,0.00,232.00,VWS V14.01,2013-02-13 20:48:00,
2013-02-13 15:53:00,40.7,23.5,29.78,NW,317,0.0,3.0,50,0.00,,---,0.00,58.00,VWS V14.01,2013-02-13 20:53:00,
2013-02-13 15:58:00,40.3,23.1,29.78,NW,317,0.0,3.0,50,0.00,,---,0.00,51.00,VWS V14.01,2013-02-13 20:58:00,
2013-02-13 16:00:00,38.3,24.0,29.75,NW,317,0.0,0.0,56,0.00,,---,0.00,26.00,VWS V14.01,2013-02-13 21:00:00,
2013-02-13 16:03:00,40.2,23.5,29.77,NW,317,0.0,0.0,51,0.00,,---,0.00,86.00,VWS V14.01,2013-02-13 21:03:00,
2013-02-13 16:08:00,40.0,23.8,29.77,NW,317,0.0,0.0,52,0.00,,---,0.00,83.00,VWS V14.01,2013-02-13 21:08:00,
2013-02-13 16:13:00,39.9,23.7,29.76,NW,317,0.0,0.0,52,0.00,,---,0.00,86.00,VWS V14.01,2013-02-13 21:13:00,
2013-02-13 16:18:00,39.7,23.5,29.77,NW,317,0.0,0.0,52,0.00,,---,0.00,74.00,VWS V14.01,2013-02-13 21:18:00,
2013-02-13 16:23:00,39.5,23.8,29.76,NW,317,0.0,0.0,53,0.00,,---,0.00,74.00,VWS V14.01,2013-02-13 21:23:00,
2013-02-13 16:28:00,39.4,23.2,29.76,NW,317,0.0,0.0,52,0.00,,---,0.00,65.00,VWS V14.01,2013-02-13 21:28:00,
2013-02-13 16:30:00,36.2,24.5,29.76,NW,317,0.0,0.0,62,0.00,,---,0.00,0.00,VWS V14.01,2013-02-13 21:30:00,
2013-02-13 16:33:00,39.3,23.2,29.76,NW,317,0.0,0.0,52,0.00,,---,0.00,62.00,VWS V14.01,2013-02-13 21:33:00,
2013-02-13 16:38:00,39.2,23.5,29.76,NW,317,0.0,0.0,53,0.00,,---,0.00,53.00,VWS V14.01,2013-02-13 21:38:00,
2013-02-13 16:43:00,39.0,24.6,29.76,NW,317,0.0,0.0,56,0.00,,---,0.00,39.00,VWS V14.01,2013-02-13 21:43:00,
2013-02-13 16:48:00,38.7,24.4,29.76,NW,317,0.0,0.0,56,0.00,,---,0.00,33.00,VWS V14.01,2013-02-13 21:48:00,
2013-02-13 16:53:00,38.6,23.8,29.76,NW,317,0.0,0.0,55,0.00,,---,0.00,28.00,VWS V14.01,2013-02-13 21:53:00,
2013-02-13 16:58:00,38.4,23.7,29.75,NW,317,0.0,0.0,55,0.00,,---,0.00,28.00,VWS V14.01,2013-02-13 21:58:00,
2013-02-13 17:00:00,33.7,25.0,29.75,NW,317,0.0,0.0,70,0.00,,---,0.00,0.00,VWS V14.01,2013-02-13 22:00:00,
2013-02-13 17:03:00,38.2,24.3,29.75,NW,317,0.0,0.0,57,0.00,,---,0.00,23.00,VWS V14.01,2013-02-13 22:03:00,
2013-02-13 17:08:00,37.8,24.4,29.75,NW,317,0.0,0.0,58,0.00,,---,0.00,14.00,VWS V14.01,2013-02-13 22:08:00,
2013-02-13 17:13:00,37.4,24.4,29.75,NW,317,0.0,0.0,59,0.00,,---,0.00,9.00,VWS V14.01,2013-02-13 22:13:00,
2013-02-13 17:18:00,37.1,24.9,29.75,NW,317,0.0,0.0,61,0.00,,---,0.00,5.00,VWS V14.01,2013-02-13 22:18:00,
2013-02-13 17:23:00,36.7,24.1,29.75,NW,317,0.0,0.0,60,0.00,,---,0.00,0.00,VWS V14.01,2013-02-13 22:23:00,
2013-02-13 17:28:00,36.3,24.5,29.76,NW,317,0.0,0.0,62,0.00,,---,0.00,0.00,VWS V14.01,2013-02-13 22:28:00,
2013-02-13 17:30:00,32.6,25.6,29.75,NW,317,0.0,0.0,75,0.00,,---,0.00,0.00,VWS V14.01,2013-02-13 22:30:00,
2013-02-13 17:33:00,35.9,24.2,29.75,NW,317,0.0,0.0,62,0.00,,---,0.00,0.00,VWS V14.01,2013-02-13 22:33:00,
2013-02-13 17:38:00,35.4,25.2,29.75,NW,317,0.0,0.0,66,0.00,,---,0.00,0.00,VWS V14.01,2013-02-13 22:38:00,
2013-02-13 17:43:00,34.9,24.0,29.75,NW,317,0.0,0.0,64,0.00,,---,0.00,0.00,VWS V14.01,2013-02-13 22:43:00,
2013-02-13 17:48:00,34.6,24.8,29.75,NW,317,0.0,0.0,67,0.00,,---,0.00,0.00,VWS V14.01,2013-02-13 22:48:00,
2013-02-13 17:53:00,34.2,24.4,29.75,NW,317,0.0,0.0,67,0.00,,---,0.00,0.00,VWS V14.01,2013-02-13 22:53:00,
2013-02-13 17:58:00,33.8,25.1,29.75,NW,317,0.0,0.0,70,0.00,,---,0.00,0.00,VWS V14.01,2013-02-13 22:58:00,
2013-02-13 18:00:00,31.9,25.2,29.75,NW,317,0.0,0.0,76,0.00,,---,0.00,0.00,VWS V14.01,2013-02-13 23:00:00,
2013-02-13 18:03:00,33.6,25.2,29.75,NW,317,0.0,0.0,71,0.00,,---,0.00,0.00,VWS V14.01,2013-02-13 23:03:00,
2013-02-13 18:08:00,33.4,25.0,29.75,NW,317,0.0,0.0,71,0.00,,---,0.00,0.00,VWS V14.01,2013-02-13 23:08:00,
2013-02-13 18:13:00,33.2,25.2,29.75,NW,317,0.0,0.0,72,0.00,,---,0.00,0.00,VWS V14.01,2013-02-13 23:13:00,
2013-02-13 18:18:00,33.1,25.1,29.75,NW,317,0.0,0.0,72,0.00,,---,0.00,0.00,VWS V14.01,2013-02-13 23:18:00,
2013-02-13 18:23:00,32.9,24.9,29.75,NW,317,0.0,0.0,72,0.00,,---,0.00,0.00,VWS V14.01,2013-02-13 23:23:00,
2013-02-13 18:28:00,32.7,25.3,29.75,NW,317,0.0,0.0,74,0.00,,---,0.00,0.00,VWS V14.01,2013-02-13 23:28:00,
2013-02-13 18:30:00,31.8,26.0,29.75,NW,317,0.0,0.0,79,0.00,,---,0.00,0.00,VWS V14.01,2013-02-13 23:30:00,
2013-02-13 18:33:00,32.5,25.5,29.75,NW,317,0.0,0.0,75,0.00,,---,0.00,0.00,VWS V14.01,2013-02-13 23:33:00,
2013-02-13 18:38:00,32.4,25.7,29.75,NW,317,0.0,0.0,76,0.00,,---,0.00,0.00,VWS V14.01,2013-02-13 23:38:00,
2013-02-13 18:43:00,32.3,25.6,29.74,NW,317,0.0,0.0,76,0.00,,---,0.00,0.00,VWS V14.01,2013-02-13 23:43:00,
2013-02-13 18:48:00,32.1,25.4,29.74,NW,317,0.0,0.0,76,0.00,,---,0.00,0.00,VWS V14.01,2013-02-13 23:48:00,
2013-02-13 18:53:00,32.1,25.4,29.75,NW,317,0.0,0.0,76,0.00,,---,0.00,0.00,VWS V14.01,2013-02-13 23:53:00,
2013-02-13 18:58:00,32.0,25.3,29.75,NW,317,0.0,0.0,76,0.00,,---,0.00,0.00,VWS V14.01,2013-02-13 23:58:00,
2013-02-13 19:00:00,31.7,26.5,29.74,NW,317,0.0,0.0,81,0.00,,---,0.00,0.00,VWS V14.01,2013-02-14 00:00:00,
2013-02-13 19:03:00,31.9,25.5,29.75,NW,317,0.0,0.0,77,0.00,,---,0.00,0.00,VWS V14.01,2013-02-14 00:03:00,
2013-02-13 19:08:00,31.9,25.5,29.75,NW,317,0.0,0.0,77,0.00,,---,0.00,0.00,VWS V14.01,2013-02-14 00:08:00,
2013-02-13 19:13:00,31.8,25.1,29.75,NW,317,0.0,0.0,76,0.00,,---,0.00,0.00,VWS V14.01,2013-02-14 00:13:00,
2013-02-13 19:18:00,31.7,25.0,29.75,NW,317,0.0,0.0,76,0.00,,---,0.00,0.00,VWS V14.01,2013-02-14 00:18:00,
2013-02-13 19:23:00,31.8,25.7,29.75,NW,317,0.0,0.0,78,0.00,,---,0.00,0.00,VWS V14.01,2013-02-14 00:23:00,
2013-02-13 19:28:00,31.8,26.0,29.75,NW,317,0.0,0.0,79,0.00,,---,0.00,0.00,VWS V14.01,2013-02-14 00:28:00,
2013-02-13 19:30:00,31.8,25.1,29.76,NW,317,0.0,0.0,76,0.00,,---,0.00,0.00,VWS V14.01,2013-02-14 00:30:00,
2013-02-13 19:33:00,31.8,26.0,29.75,NW,317,0.0,0.0,79,0.00,,---,0.00,0.00,VWS V14.01,2013-02-14 00:33:00,
2013-02-13 19:38:00,31.8,26.0,29.75,NW,317,0.0,0.0,79,0.00,,---,0.00,0.00,VWS V14.01,2013-02-14 00:38:00,
2013-02-13 19:43:00,31.8,26.0,29.75,NW,317,0.0,0.0,79,0.00,,---,0.00,0.00,VWS V14.01,2013-02-14 00:43:00,
2013-02-13 19:48:00,31.8,26.6,29.75,NW,317,0.0,0.0,81,0.00,,---,0.00,0.00,VWS V14.01,2013-02-14 00:48:00,
2013-02-13 19:53:00,31.7,26.5,29.75,NW,317,0.0,0.0,81,0.00,,---,0.00,0.00,VWS V14.01,2013-02-14 00:53:00,
2013-02-13 19:58:00,31.7,26.8,29.74,NW,317,0.0,0.0,82,0.00,,---,0.00,0.00,VWS V14.01,2013-02-14 00:58:00,
2013-02-13 20:00:00,31.8,26.9,29.75,NW,317,0.0,0.0,82,0.00,,---,0.00,0.00,VWS V14.01,2013-02-14 01:00:00,
2013-02-13 20:03:00,31.6,26.5,29.75,NW,317,0.0,0.0,81,0.00,,---,0.00,0.00,VWS V14.01,2013-02-14 01:03:00,
2013-02-13 20:08:00,31.6,25.9,29.75,NW,317,0.0,0.0,79,0.00,,---,0.00,0.00,VWS V14.01,2013-02-14 01:08:00,
2013-02-13 20:13:00,31.6,26.1,29.75,NW,317,0.0,0.0,80,0.00,,---,0.00,0.00,VWS V14.01,2013-02-14 01:13:00,
2013-02-13 20:18:00,31.6,25.9,29.75,NW,317,0.0,0.0,79,0.00,,---,0.00,0.00,VWS V14.01,2013-02-14 01:18:00,
2013-02-13 20:23:00,31.7,25.3,29.75,NW,317,0.0,0.0,77,0.00,,---,0.00,0.00,VWS V14.01,2013-02-14 01:23:00,
2013-02-13 20:28:00,31.7,25.3,29.76,NW,317,0.0,0.0,77,0.00,,---,0.00,0.00,VWS V14.01,2013-02-14 01:28:00,
2013-02-13 20:30:00,31.7,26.2,29.75,NW,317,0.0,0.0,80,0.00,,---,0.00,0.00,VWS V14.01,2013-02-14 01:30:00,
2013-02-13 20:33:00,31.8,25.1,29.76,NW,317,0.0,0.0,76,0.00,,---,0.00,0.00,VWS V14.01,2013-02-14 01:33:00,
2013-02-13 20:38:00,31.9,25.8,29.76,NW,317,0.0,0.0,78,0.00,,---,0.00,0.00,VWS V14.01,2013-02-14 01:38:00,
2013-02-13 20:43:00,32.0,25.9,29.76,NW,317,0.0,0.0,78,0.00,,---,0.00,0.00,VWS V14.01,2013-02-14 01:43:00,
2013-02-13 20:48:00,32.0,26.5,29.76,NW,317,0.0,0.0,80,0.00,,---,0.00,0.00,VWS V14.01,2013-02-14 01:48:00,
2013-02-13 20:53:00,31.9,26.4,29.76,NW,317,0.0,0.0,80,0.00,,---,0.00,0.00,VWS V14.01,2013-02-14 01:53:00,
2013-02-13 20:58:00,31.8,26.6,29.75,NW,317,0.0,0.0,81,0.00,,---,0.00,0.00,VWS V14.01,2013-02-14 01:58:00,
2013-02-13 21:00:00,31.6,26.1,29.75,NW,317,0.0,0.0,80,0.00,,---,0.00,0.00,VWS V14.01,2013-02-14 02:00:00,
2013-02-13 21:03:00,31.7,26.5,29.75,NW,317,0.0,0.0,81,0.00,,---,0.00,0.00,VWS V14.01,2013-02-14 02:03:00,
2013-02-13 21:08:00,31.6,26.1,29.75,NW,317,0.0,0.0,80,0.00,,---,0.00,0.00,VWS V14.01,2013-02-14 02:08:00,
2013-02-13 21:13:00,31.7,26.2,29.75,NW,317,0.0,0.0,80,0.00,,---,0.00,0.00,VWS V14.01,2013-02-14 02:13:00,
2013-02-13 21:18:00,31.7,26.2,29.75,NW,317,0.0,0.0,80,0.00,,---,0.00,0.00,VWS V14.01,2013-02-14 02:18:00,
2013-02-13 21:23:00,31.7,26.2,29.75,NW,317,0.0,0.0,80,0.00,,---,0.00,0.00,VWS V14.01,2013-02-14 02:23:00,
2013-02-13 21:28:00,31.7,26.2,29.75,NW,317,0.0,0.0,80,0.00,,---,0.00,0.00,VWS V14.01,2013-02-14 02:28:00,
2013-02-13 21:30:00,31.8,26.9,29.75,NW,317,0.0,0.0,82,0.00,,---,0.00,0.00,VWS V14.01,2013-02-14 02:30:00,
2013-02-13 21:33:00,31.6,26.1,29.75,NW,317,0.0,0.0,80,0.00,,---,0.00,0.00,VWS V14.01,2013-02-14 02:33:00,
2013-02-13 21:38:00,31.6,26.1,29.75,NW,317,0.0,0.0,80,0.00,,---,0.00,0.00,VWS V14.01,2013-02-14 02:38:00,
2013-02-13 21:43:00,31.6,26.5,29.75,NW,317,0.0,0.0,81,0.00,,---,0.00,0.00,VWS V14.01,2013-02-14 02:43:00,
2013-02-13 21:48:00,31.6,26.5,29.75,NW,317,0.0,0.0,81,0.00,,---,0.00,0.00,VWS V14.01,2013-02-14 02:48:00,
2013-02-13 21:53:00,31.6,26.1,29.75,NW,317,0.0,0.0,80,0.00,,---,0.00,0.00,VWS V14.01,2013-02-14 02:53:00,
2013-02-13 21:58:00,31.6,26.1,29.75,NW,317,0.0,0.0,80,0.00,,---,0.00,0.00,VWS V14.01,2013-02-14 02:58:00,
2013-02-13 22:00:00,31.8,26.9,29.75,NW,317,0.0,0.0,82,0.00,,---,0.00,0.00,VWS V14.01,2013-02-14 03:00:00,
2013-02-13 22:03:00,31.6,26.1,29.75,NW,317,0.0,0.0,80,0.00,,---,0.00,0.00,VWS V14.01,2013-02-14 03:03:00,
2013-02-13 22:08:00,31.6,26.1,29.75,NW,317,0.0,0.0,80,0.00,,---,0.00,0.00,VWS V14.01,2013-02-14 03:08:00,
2013-02-13 22:13:00,31.6,26.1,29.75,NW,317,0.0,0.0,80,0.00,,---,0.00,0.00,VWS V14.01,2013-02-14 03:13:00,
2013-02-13 22:18:00,31.7,26.5,29.75,NW,317,0.0,0.0,81,0.00,,---,0.00,0.00,VWS V14.01,2013-02-14 03:18:00,
2013-02-13 22:23:00,31.8,26.9,29.75,NW,317,0.0,0.0,82,0.00,,---,0.00,0.00,VWS V14.01,2013-02-14 03:23:00,
2013-02-13 22:28:00,31.8,26.9,29.75,NW,317,0.0,0.0,82,0.00,,---,0.00,0.00,VWS V14.01,2013-02-14 03:28:00,
2013-02-13 22:30:00,31.8,26.9,29.75,NW,317,0.0,0.0,82,0.00,,---,0.00,0.00,VWS V14.01,2013-02-14 03:30:00,
2013-02-13 22:33:00,31.7,26.5,29.75,NW,317,0.0,0.0,81,0.00,,---,0.00,0.00,VWS V14.01,2013-02-14 03:33:00,
2013-02-13 22:38:00,31.8,26.4,29.75,NW,317,0.0,0.0,80,0.00,,---,0.00,0.00,VWS V14.01,2013-02-14 03:38:00,
2013-02-13 22:43:00,31.8,26.6,29.75,NW,317,0.0,0.0,81,0.00,,---,0.00,0.00,VWS V14.01,2013-02-14 03:43:00,
2013-02-13 22:48:00,31.7,26.5,29.75,NW,317,0.0,0.0,81,0.00,,---,0.00,0.00,VWS V14.01,2013-02-14 03:48:00,
2013-02-13 22:53:00,31.8,27.2,29.75,NW,317,0.0,0.0,83,0.00,,---,0.00,0.00,VWS V14.01,2013-02-14 03:53:00,
2013-02-13 22:58:00,31.8,26.9,29.75,NW,317,0.0,0.0,82,0.00,,---,0.00,0.00,VWS V14.01,2013-02-14 03:58:00,
2013-02-13 23:00:00,31.8,26.9,29.75,NW,317,0.0,0.0,82,0.00,,---,0.00,0.00,VWS V14.01,2013-02-14 04:00:00,
2013-02-13 23:03:00,31.8,26.9,29.75,NW,317,0.0,0.0,82,0.00,,---,0.00,0.00,VWS V14.01,2013-02-14 04:03:00,
2013-02-13 23:08:00,31.7,26.8,29.75,NW,317,0.0,0.0,82,0.00,,---,0.00,0.00,VWS V14.01,2013-02-14 04:08:00,
2013-02-13 23:13:00,31.7,26.8,29.75,NW,317,0.0,0.0,82,0.00,,---,0.00,0.00,VWS V14.01,2013-02-14 04:13:00,
2013-02-13 23:18:00,31.7,27.1,29.75,NW,317,0.0,0.0,83,0.00,,---,0.00,0.00,VWS V14.01,2013-02-14 04:18:00,
2013-02-13 23:23:00,31.7,27.1,29.74,NW,317,0.0,0.0,83,0.00,,---,0.00,0.00,VWS V14.01,2013-02-14 04:23:00,